TimeHST,TemperatureF,Dew PointF,Humidity,Sea Level PressureIn,VisibilityMPH,Wind Direction,Wind SpeedMPH,Gust SpeedMPH,PrecipitationIn,Events,Conditions,WindDirDegrees,DateUTC
12:09 AM,73.4,64.4,73,30.15,6.2,ENE,17.3,27.6,0.00,Rain,Light Rain,70,2013-01-05 10:09:00
12:34 AM,73.4,64.4,73,30.15,6.2,East,16.1,28.8,0.00,,Mostly Cloudy,90,2013-01-05 10:34:00
12:57 AM,73.4,64.9,75,30.14,10.0,East,15.0,34.5,0.01,Rain,Light Rain,80,2013-01-05 10:57:00
1:57 AM,73.4,64.9,75,30.12,10.0,ENE,13.8,25.3,0.00,,Overcast,70,2013-01-05 11:57:00
2:09 AM,73.4,64.4,73,30.14,-9999.0,East,13.8,32.2,0.00,Rain,Light Rain,80,2013-01-05 12:09:00
2:16 AM,73.4,64.4,73,30.14,6.2,East,17.3,23.0,0.00,Rain,Light Rain,80,2013-01-05 12:16:00
2:57 AM,73.4,64.9,75,30.12,10.0,ENE,18.4,29.9,0.01,Rain,Light Rain,70,2013-01-05 12:57:00
3:20 AM,73.4,66.2,78,30.13,6.2,East,13.8,28.8,0.00,,Overcast,80,2013-01-05 13:20:00
3:50 AM,71.6,66.2,83,30.12,10.0,East,17.3,38.0,0.00,Rain,Light Rain,80,2013-01-05 13:50:00
3:57 AM,71.6,66.0,82,30.11,10.0,ENE,19.6,36.8,0.00,,Mostly Cloudy,70,2013-01-05 13:57:00
4:57 AM,71.6,64.9,79,30.11,10.0,ENE,18.4,31.1,0.00,Rain,Light Rain,70,2013-01-05 14:57:00
5:57 AM,71.6,66.0,82,30.12,-9999.0,East,12.7,27.6,0.00,Rain,Light Rain,90,2013-01-05 15:57:00
6:57 AM,71.6,64.0,77,30.13,7.0,East,13.8,26.5,0.01,,Overcast,80,2013-01-05 16:57:00
7:57 AM,71.6,66.0,82,30.15,10.0,East,11.5,24.2,0.01,,Overcast,80,2013-01-05 17:57:00
8:18 AM,71.6,66.2,83,30.17,6.2,East,13.8,28.8,0.01,,Mostly Cloudy,90,2013-01-05 18:18:00
8:28 AM,71.6,66.2,83,30.17,6.2,East,16.1,27.6,0.01,,Mostly Cloudy,90,2013-01-05 18:28:00
8:57 AM,73.4,69.6,88,30.16,10.0,East,13.8,29.9,0.01,,Overcast,80,2013-01-05 18:57:00
9:57 AM,73.4,66.0,78,30.16,10.0,East,13.8,24.2,0.01,,Mostly Cloudy,80,2013-01-05 19:57:00
10:57 AM,75.2,66.0,73,30.15,10.0,ENE,16.1,33.4,0.02,Rain,Rain,70,2013-01-05 20:57:00
11:17 AM,75.2,68.0,78,30.16,6.2,ENE,13.8,20.7,0.00,,Mostly Cloudy,70,2013-01-05 21:17:00
11:57 AM,75.2,68.7,80,30.14,10.0,East,15.0,31.1,0.00,Rain,Light Rain,80,2013-01-05 21:57:00
12:57 PM,75.2,66.0,73,30.14,10.0,East,16.1,31.1,0.03,,Mostly Cloudy,90,2013-01-05 22:57:00
1:18 PM,77.0,66.2,69,30.13,6.2,East,13.8,27.6,0.00,Rain,Light Rain,80,2013-01-05 23:18:00
1:41 PM,77.0,66.2,69,30.11,6.2,ENE,19.6,29.9,0.00,,Overcast,70,2013-01-05 23:41:00
1:57 PM,77.0,66.0,69,30.09,10.0,East,13.8,28.8,0.01,Rain,Light Rain,80,2013-01-05 23:57:00
2:57 PM,77.0,66.0,69,30.09,10.0,East,12.7,26.5,0.01,,Mostly Cloudy,90,2013-01-06 00:57:00
3:04 PM,75.2,64.4,69,30.10,6.2,East,15.0,34.5,N/A,,Overcast,90,2013-01-06 01:04:00
3:57 PM,75.2,64.0,68,30.09,10.0,East,15.0,29.9,0.02,Rain,Light Rain,90,2013-01-06 01:57:00
4:57 PM,73.4,66.9,80,30.09,10.0,East,13.8,28.8,0.00,,Overcast,80,2013-01-06 02:57:00
5:07 PM,73.4,64.4,73,30.12,6.2,ENE,16.1,27.6,N/A,,Overcast,70,2013-01-06 03:07:00
5:57 PM,73.8,65.5,75,30.11,10.0,East,19.6,29.9,0.00,,Overcast,80,2013-01-06 03:57:00
6:14 PM,73.4,68.0,83,30.13,6.2,East,15.0,26.5,N/A,,Mostly Cloudy,80,2013-01-06 04:14:00
6:21 PM,73.4,68.0,83,30.13,6.2,ENE,17.3,32.2,N/A,,Mostly Cloudy,70,2013-01-06 04:21:00
6:57 PM,73.4,67.6,82,30.12,10.0,East,13.8,27.6,N/A,,Overcast,80,2013-01-06 04:57:00
7:57 PM,74.1,64.0,71,30.14,10.0,ENE,18.4,27.6,0.01,,Overcast,70,2013-01-06 05:57:00
8:57 PM,73.6,64.9,74,30.16,10.0,ENE,17.3,24.2,0.00,,Overcast,70,2013-01-06 06:57:00
9:06 PM,-9999,-9999,N/A,30.18,6.2,East,12.7,25.3,N/A,,Overcast,80,2013-01-06 07:06:00
9:14 PM,73.4,64.4,73,30.18,6.2,ENE,18.4,28.8,N/A,,Mostly Cloudy,70,2013-01-06 07:14:00
9:28 PM,73.4,64.4,73,30.18,6.2,ENE,16.1,25.3,N/A,,Overcast,70,2013-01-06 07:28:00
9:57 PM,73.6,64.0,72,30.17,10.0,East,12.7,21.9,N/A,,Overcast,80,2013-01-06 07:57:00
10:33 PM,71.6,64.4,78,30.18,6.2,East,13.8,23.0,N/A,,Mostly Cloudy,80,2013-01-06 08:33:00
10:57 PM,72.3,64.9,78,30.16,10.0,ENE,13.8,24.2,0.00,,Mostly Cloudy,70,2013-01-06 08:57:00
11:31 PM,71.6,64.4,78,30.17,6.2,East,12.7,21.9,0.00,,Mostly Cloudy,80,2013-01-06 09:31:00
11:57 PM,72.0,64.0,76,30.15,10.0,East,9.2,24.2,0.00,,Mostly Cloudy,90,2013-01-06 09:57:00